Change the Weather History Date:

Saturday, March 2, 2013

  Actual Average Record
Temperature  
Mean Temperature 40 °F -  
Max Temperature 53 °F 47 °F 53 °F (2013)
Min Temperature 28 °F 34 °F 21 °F (2001)
Degree Days  
Heating Degree Days 24    
Moisture  
Dew Point 38 °F    
Average Humidity 82    
Maximum Humidity 100    
Minimum Humidity 62    
Precipitation  
Precipitation 0.00 in - - ()
Sea Level Pressure  
Sea Level Pressure 30.32 in    
Wind  
Wind Speed 4 mph ()    
Max Wind Speed 12 mph    
Max Gust Speed -    
Visibility 6.2 miles    
Events      
Averages and records for this station are not official NWS values.
T = Trace of Precipitation, MM = Missing Value Source: Averaged Metar Reports

Daily Weather History Graph

Daily Weather History Graph

Search for Another Location

Airport or City:

Trip Planner

Search our weather history database for the weather conditions in past years. The results will help you decide how hot, cold, wet, or windy it might be!

Date:

Astronomy

Mar. 02, 2013 Rise Set
Actual Time 7:06 AM GMT 5:54 PM GMT
Civil Twilight 6:29 AM GMT 6:31 PM GMT
Nautical Twilight 5:46 AM GMT 7:14 PM GMT
Astronomical Twilight 5:02 AM GMT 7:58 PM GMT
Moon No Moon Rise 8:23 AM GMT (3/2)
Length of Visible Light 12h 02m
Length of Day
10h 48m
Waning Gibbous, 76% of the Moon is Illuminated
Mar 2
Waning Gibbous
Mar 4
Last Quarter
Mar 11
New
Mar 19
First Quarter
Mar 27
Full

Hourly Weather History & Observations

Time (GMT) Temp. Windchill Dew Point Humidity Pressure Visibility Wind Dir Wind Speed Gust Speed Precip Events Conditions
12:20 AM 28.4 °F 24.6 °F 26.6 °F 93% 30.45 in - SW 3.5 mph - N/A   Clear
12:50 AM 30.2 °F 26.7 °F 28.4 °F 93% 30.45 in 5.6 mi West 3.5 mph - N/A   Unknown
1:20 AM 30.2 °F - 28.4 °F 93% 30.45 in 5.6 mi SW 2.3 mph - N/A   Unknown
1:50 AM 30.2 °F - 28.4 °F 93% 30.42 in 6.2 mi SW 2.3 mph - N/A   Scattered Clouds
2:20 AM 30.2 °F - 28.4 °F 93% 30.42 in 6.2 mi Variable 2.3 mph - N/A   Mostly Cloudy
2:50 AM 32.0 °F 28.7 °F 32.0 °F 100% 30.39 in 6.2 mi West 3.5 mph - N/A   Mostly Cloudy
3:20 AM 33.8 °F - 32.0 °F 93% 30.39 in 6.2 mi Calm Calm - N/A   Overcast
3:50 AM 33.8 °F - 32.0 °F 93% 30.39 in 6.2 mi Calm Calm - N/A   Overcast
4:20 AM 33.8 °F - 32.0 °F 93% 30.39 in 6.2 mi Variable 2.3 mph - N/A   Overcast
4:50 AM 35.6 °F - 33.8 °F 93% 30.39 in 6.2 mi Calm Calm - N/A   Overcast
5:20 AM 35.6 °F - 33.8 °F 93% 30.36 in 6.2 mi Variable 2.3 mph - N/A   Overcast
5:50 AM 35.6 °F - 33.8 °F 93% 30.36 in 6.2 mi Calm Calm - N/A   Mostly Cloudy
6:20 AM 37.4 °F - 35.6 °F 93% 30.36 in 6.2 mi WSW 2.3 mph - N/A   Mostly Cloudy
6:50 AM 39.2 °F 35.0 °F 37.4 °F 93% 30.36 in 6.2 mi WSW 5.8 mph - N/A   Mostly Cloudy
7:20 AM 39.2 °F 35.0 °F 37.4 °F 93% 30.36 in 6.2 mi WSW 5.8 mph - N/A   Mostly Cloudy
7:50 AM 41.0 °F 37.1 °F 39.2 °F 93% 30.36 in 6.2 mi WSW 5.8 mph - N/A   Mostly Cloudy
8:20 AM 41.0 °F 36.4 °F 39.2 °F 93% 30.36 in 6.2 mi WSW 6.9 mph - N/A   Mostly Cloudy
8:50 AM 42.8 °F 38.6 °F 41.0 °F 93% 30.33 in 6.2 mi WSW 6.9 mph - N/A   Mostly Cloudy
9:20 AM 44.6 °F 41.4 °F 41.0 °F 87% 30.33 in 6.2 mi WSW 5.8 mph - N/A   Mostly Cloudy
9:50 AM 46.4 °F 45.2 °F 42.8 °F 87% 30.33 in 6.2 mi West 3.5 mph - N/A   Scattered Clouds
10:20 AM 46.4 °F - 41.0 °F 81% 30.33 in 6.2 mi Variable 2.3 mph - N/A   Mostly Cloudy
10:50 AM 48.2 °F - 42.8 °F 82% 30.33 in 6.2 mi WNW 5.8 mph - N/A   Mostly Cloudy
11:20 AM 50.0 °F - 41.0 °F 71% 30.33 in 6.2 mi West 8.1 mph - N/A   Mostly Cloudy
11:50 AM 50.0 °F - 41.0 °F 71% 30.33 in 6.2 mi WNW 8.1 mph - N/A   Scattered Clouds
12:20 PM 50.0 °F - 41.0 °F 71% 30.30 in 6.2 mi WNW 8.1 mph - N/A   Scattered Clouds
12:50 PM 51.8 °F - 41.0 °F 67% 30.30 in 6.2 mi WNW 8.1 mph - N/A   Scattered Clouds
1:20 PM 51.8 °F - 41.0 °F 67% 30.30 in 6.2 mi WNW 8.1 mph - N/A   Scattered Clouds
1:50 PM 53.6 °F - 41.0 °F 62% 30.30 in 6.2 mi West 9.2 mph - N/A   Scattered Clouds
2:20 PM 51.8 °F - 41.0 °F 67% 30.27 in 6.2 mi West 9.2 mph - N/A   Scattered Clouds
2:50 PM 53.6 °F - 41.0 °F 62% 30.27 in 6.2 mi WNW 11.5 mph - N/A   Scattered Clouds
3:20 PM 51.8 °F - 41.0 °F 67% 30.27 in 6.2 mi WNW 10.4 mph - N/A   Scattered Clouds
3:50 PM 51.8 °F - 41.0 °F 67% 30.27 in 6.2 mi WNW 11.5 mph - N/A   Scattered Clouds
4:20 PM 51.8 °F - 41.0 °F 67% 30.27 in 6.2 mi WNW 9.2 mph - N/A   Scattered Clouds
4:50 PM 51.8 °F - 41.0 °F 67% 30.27 in 6.2 mi WNW 6.9 mph - N/A   Mostly Cloudy
5:20 PM 50.0 °F - 41.0 °F 71% 30.27 in 6.2 mi West 6.9 mph - N/A   Mostly Cloudy
5:50 PM 48.2 °F - 41.0 °F 76% 30.27 in 6.2 mi WNW 5.8 mph - N/A   Mostly Cloudy
6:20 PM 48.2 °F - 39.2 °F 71% 30.27 in 6.2 mi WNW 6.9 mph - N/A   Mostly Cloudy
6:50 PM 48.2 °F - 39.2 °F 71% 30.27 in 6.2 mi WNW 5.8 mph - N/A   Mostly Cloudy
7:20 PM 46.4 °F 45.2 °F 39.2 °F 76% 30.27 in 6.2 mi WSW 3.5 mph - N/A   Mostly Cloudy
7:50 PM 46.4 °F 44.3 °F 41.0 °F 81% 30.27 in 6.2 mi WSW 4.6 mph - N/A   Mostly Cloudy
8:20 PM 44.6 °F 41.4 °F 41.0 °F 87% 30.27 in 6.2 mi WSW 5.8 mph - N/A   Mostly Cloudy
8:50 PM 46.4 °F 43.5 °F 41.0 °F 81% 30.27 in 6.2 mi West 5.8 mph - N/A   Mostly Cloudy
9:20 PM 44.6 °F 42.2 °F 41.0 °F 87% 30.27 in 6.2 mi WSW 4.6 mph - N/A   Mostly Cloudy
9:50 PM 44.6 °F 42.2 °F 41.0 °F 87% 30.27 in 6.2 mi West 4.6 mph - N/A   Mostly Cloudy
10:20 PM 44.6 °F 41.4 °F 41.0 °F 87% 30.27 in 6.2 mi SW 5.8 mph - N/A   Mostly Cloudy
10:50 PM 44.6 °F 43.1 °F 41.0 °F 87% 30.27 in 6.2 mi WSW 3.5 mph - N/A   Mostly Cloudy
11:20 PM 44.6 °F 42.2 °F 41.0 °F 87% 30.27 in 6.2 mi WSW 4.6 mph - N/A   Mostly Cloudy
11:50 PM 44.6 °F 42.2 °F 41.0 °F 87% 30.27 in 6.2 mi WSW 4.6 mph - N/A   Mostly Cloudy